contact:dominique.lefevre@mio.osupytheas.fr, maurice.libes@osupytheas.fr, didier.mallarino@osupytheas.fr
Project:EMSO http://www.emso-fr.org/EMSO-France
Depth: 2436.0 m
Title:EMSO Ligure Ouest : Data MII capteur MICROCAT
DateTime_Computer,Latitude,Longitude,Temperature,Conductivity,Pressure,DateTime_Instrument
DateTime_Computer,Latitude,Longitude,degC,S m-1,dbar,DateTime_Instrument
2022-04-26T00:01:17Z,42.805,6.029,13.2999,4.60050,2470.227,2022-4-26T02:02:56Z
2022-04-26T00:04:20Z,42.805,6.029,13.2997,4.60047,2470.25,2022-4-26T02:05:59Z
2022-04-26T00:07:23Z,42.805,6.029,13.2993,4.60051,2470.213,2022-4-26T02:09:02Z
2022-04-26T00:10:26Z,42.805,6.029,13.2999,4.60042,2470.227,2022-4-26T02:12:06Z
2022-04-26T00:13:29Z,42.805,6.029,13.3000,4.60049,2470.227,2022-4-26T02:15:09Z
2022-04-26T00:16:33Z,42.805,6.029,13.2998,4.60062,2470.25,2022-4-26T02:18:12Z
2022-04-26T00:19:36Z,42.805,6.029,13.2998,4.60057,2470.264,2022-4-26T02:21:15Z
2022-04-26T00:22:39Z,42.805,6.029,13.2998,4.60054,2470.264,2022-4-26T02:24:19Z
2022-04-26T00:25:43Z,42.805,6.029,13.3000,4.60057,2470.287,2022-4-26T02:27:22Z
2022-04-26T00:28:46Z,42.805,6.029,13.2996,4.60057,2470.25,2022-4-26T02:30:25Z
2022-04-26T00:31:49Z,42.805,6.029,13.2999,4.60050,2470.287,2022-4-26T02:33:28Z
2022-04-26T00:34:52Z,42.805,6.029,13.2996,4.60054,2470.287,2022-4-26T02:36:31Z
2022-04-26T00:37:55Z,42.805,6.029,13.2998,4.60058,2470.273,2022-4-26T02:39:34Z
2022-04-26T00:40:58Z,42.805,6.029,13.2997,4.60052,2470.273,2022-4-26T02:42:38Z
2022-04-26T00:44:01Z,42.805,6.029,13.3000,4.60059,2470.31,2022-4-26T02:45:41Z
2022-04-26T00:47:04Z,42.805,6.029,13.2997,4.60057,2470.273,2022-4-26T02:48:44Z
2022-04-26T00:50:08Z,42.805,6.029,13.3000,4.60068,2470.297,2022-4-26T02:51:47Z
2022-04-26T00:53:11Z,42.805,6.029,13.2998,4.60065,2470.31,2022-4-26T02:54:50Z
2022-04-26T00:56:14Z,42.805,6.029,13.2997,4.60062,2470.287,2022-4-26T02:57:53Z
2022-04-26T00:59:17Z,42.805,6.029,13.2998,4.60067,2470.32,2022-4-26T03:00:56Z
2022-04-26T01:02:20Z,42.805,6.029,13.3001,4.60059,2470.32,2022-4-26T03:03:59Z
2022-04-26T01:05:23Z,42.805,6.029,13.2998,4.60066,2470.297,2022-4-26T03:07:02Z
2022-04-26T01:08:26Z,42.805,6.029,13.2999,4.60062,2470.334,2022-4-26T03:10:06Z
2022-04-26T01:11:29Z,42.805,6.029,13.2999,4.60080,2470.343,2022-4-26T03:13:09Z
2022-04-26T01:14:33Z,42.805,6.029,13.3003,4.60069,2470.273,2022-4-26T03:16:12Z
2022-04-26T01:17:36Z,42.805,6.029,13.2998,4.60074,2470.297,2022-4-26T03:19:15Z
2022-04-26T01:20:39Z,42.805,6.029,13.3008,4.60098,2470.334,2022-4-26T03:22:18Z
2022-04-26T01:23:42Z,42.805,6.029,13.3045,4.60086,2470.287,2022-4-26T03:25:21Z
2022-04-26T01:26:45Z,42.805,6.029,13.3046,4.60090,2470.343,2022-4-26T03:28:24Z
2022-04-26T01:29:48Z,42.805,6.029,13.3014,4.60112,2470.32,2022-4-26T03:31:27Z
2022-04-26T01:32:51Z,42.805,6.029,13.3060,4.60110,2470.334,2022-4-26T03:34:31Z
2022-04-26T01:35:54Z,42.805,6.029,13.3090,4.60095,2470.32,2022-4-26T03:37:34Z
2022-04-26T01:38:58Z,42.805,6.029,13.3078,4.60074,2470.334,2022-4-26T03:40:37Z
2022-04-26T01:42:01Z,42.805,6.029,13.3069,4.60073,2470.343,2022-4-26T03:43:40Z
2022-04-26T01:45:04Z,42.805,6.029,13.3060,4.60074,2470.334,2022-4-26T03:46:43Z
2022-04-26T01:48:07Z,42.805,6.029,13.3050,4.60073,2470.357,2022-4-26T03:49:46Z
2022-04-26T01:51:10Z,42.805,6.029,13.3068,4.60069,2470.334,2022-4-26T03:52:49Z
2022-04-26T01:54:13Z,42.805,6.029,13.3063,4.60072,2470.357,2022-4-26T03:55:52Z
2022-04-26T01:57:16Z,42.805,6.029,13.3049,4.60074,2470.343,2022-4-26T03:58:56Z
2022-04-26T02:00:19Z,42.805,6.029,13.3074,4.60086,2470.343,2022-4-26T04:01:59Z
2022-04-26T02:03:22Z,42.805,6.029,13.3078,4.60081,2470.334,2022-4-26T04:05:02Z
2022-04-26T02:06:26Z,42.805,6.029,13.3069,4.60076,2470.38,2022-4-26T04:08:05Z
2022-04-26T02:09:29Z,42.805,6.029,13.3073,4.60069,2470.38,2022-4-26T04:11:08Z
2022-04-26T02:12:32Z,42.805,6.029,13.3059,4.60087,2470.38,2022-4-26T04:14:11Z
2022-04-26T02:15:35Z,42.805,6.029,13.3073,4.60070,2470.343,2022-4-26T04:17:14Z
2022-04-26T02:18:38Z,42.805,6.029,13.3054,4.60078,2470.38,2022-4-26T04:20:17Z
2022-04-26T02:21:41Z,42.805,6.029,13.3066,4.60080,2470.357,2022-4-26T04:23:20Z
2022-04-26T02:24:44Z,42.805,6.029,13.3073,4.60071,2470.343,2022-4-26T04:26:24Z
2022-04-26T02:27:47Z,42.805,6.029,13.3049,4.60069,2470.366,2022-4-26T04:29:27Z
2022-04-26T02:30:51Z,42.805,6.029,13.3061,4.60070,2470.357,2022-4-26T04:32:30Z
2022-04-26T02:33:54Z,42.805,6.029,13.3048,4.60070,2470.366,2022-4-26T04:35:33Z
2022-04-26T02:36:57Z,42.805,6.029,13.3051,4.60075,2470.38,2022-4-26T04:38:36Z
2022-04-26T02:40:00Z,42.805,6.029,13.3057,4.60072,2470.343,2022-4-26T04:41:39Z
2022-04-26T02:43:03Z,42.805,6.029,13.3068,4.60077,2470.366,2022-4-26T04:44:42Z
2022-04-26T02:46:06Z,42.805,6.029,13.3058,4.60067,2470.427,2022-4-26T04:47:45Z
2022-04-26T02:49:09Z,42.805,6.029,13.3060,4.60072,2470.38,2022-4-26T04:50:49Z
2022-04-26T02:52:12Z,42.805,6.029,13.3052,4.60077,2470.404,2022-4-26T04:53:52Z
2022-04-26T02:55:16Z,42.805,6.029,13.3044,4.60072,2470.427,2022-4-26T04:56:55Z
2022-04-26T02:58:19Z,42.805,6.029,13.3044,4.60067,2470.39,2022-4-26T04:59:58Z
2022-04-26T03:01:22Z,42.805,6.029,13.3056,4.60074,2470.427,2022-4-26T05:03:01Z
2022-04-26T03:04:25Z,42.805,6.029,13.3049,4.60080,2470.38,2022-4-26T05:06:04Z
2022-04-26T03:07:28Z,42.805,6.029,13.3049,4.60074,2470.38,2022-4-26T05:09:07Z
2022-04-26T03:10:31Z,42.805,6.029,13.3052,4.60090,2470.404,2022-4-26T05:12:10Z
2022-04-26T03:13:34Z,42.805,6.029,13.3051,4.60078,2470.39,2022-4-26T05:15:14Z
2022-04-26T03:16:37Z,42.805,6.029,13.3040,4.60069,2470.404,2022-4-26T05:18:17Z
2022-04-26T03:19:40Z,42.805,6.029,13.3061,4.60068,2470.404,2022-4-26T05:21:20Z
2022-04-26T03:22:44Z,42.805,6.029,13.3048,4.60069,2470.404,2022-4-26T05:24:23Z
2022-04-26T03:25:47Z,42.805,6.029,13.3067,4.60077,2470.413,2022-4-26T05:27:26Z
2022-04-26T03:28:50Z,42.805,6.029,13.3049,4.60074,2470.38,2022-4-26T05:30:29Z
2022-04-26T03:31:53Z,42.805,6.029,13.3039,4.60085,2470.437,2022-4-26T05:33:32Z
2022-04-26T03:34:56Z,42.805,6.029,13.3049,4.60071,2470.404,2022-4-26T05:36:35Z
2022-04-26T03:37:59Z,42.805,6.029,13.3046,4.60078,2470.38,2022-4-26T05:39:39Z
2022-04-26T03:41:02Z,42.805,6.029,13.3048,4.60081,2470.427,2022-4-26T05:42:42Z
2022-04-26T03:44:05Z,42.805,6.029,13.3063,4.60078,2470.427,2022-4-26T05:45:45Z
2022-04-26T03:47:09Z,42.805,6.029,13.3047,4.60062,2470.427,2022-4-26T05:48:48Z
2022-04-26T03:50:12Z,42.805,6.029,13.3052,4.60079,2470.413,2022-4-26T05:51:51Z
2022-04-26T03:53:15Z,42.805,6.029,13.3063,4.60072,2470.45,2022-4-26T05:54:54Z
2022-04-26T03:56:18Z,42.805,6.029,13.3041,4.60074,2470.413,2022-4-26T05:57:57Z
2022-04-26T03:59:21Z,42.805,6.029,13.3046,4.60075,2470.413,2022-4-26T06:01:00Z
2022-04-26T04:02:24Z,42.805,6.029,13.3043,4.60084,2470.437,2022-4-26T06:04:04Z
2022-04-26T04:05:27Z,42.805,6.029,13.3044,4.60072,2470.497,2022-4-26T06:07:07Z
2022-04-26T04:08:30Z,42.805,6.029,13.3042,4.60078,2470.46,2022-4-26T06:10:10Z
2022-04-26T04:11:34Z,42.805,6.029,13.3041,4.60089,2470.413,2022-4-26T06:13:13Z
2022-04-26T04:14:37Z,42.805,6.029,13.3047,4.60086,2470.45,2022-4-26T06:16:16Z
2022-04-26T04:17:40Z,42.805,6.029,13.3060,4.60081,2470.427,2022-4-26T06:19:19Z
2022-04-26T04:20:43Z,42.805,6.029,13.3045,4.60093,2470.427,2022-4-26T06:22:22Z
2022-04-26T04:23:46Z,42.805,6.029,13.3041,4.60084,2470.413,2022-4-26T06:25:25Z
2022-04-26T04:26:49Z,42.805,6.029,13.3064,4.60079,2470.45,2022-4-26T06:28:28Z
2022-04-26T04:29:52Z,42.805,6.029,13.3045,4.60092,2470.413,2022-4-26T06:31:32Z
2022-04-26T04:32:55Z,42.805,6.029,13.3071,4.60084,2470.427,2022-4-26T06:34:35Z
2022-04-26T04:35:58Z,42.805,6.029,13.3055,4.60090,2470.483,2022-4-26T06:37:38Z
2022-04-26T04:39:02Z,42.805,6.029,13.3069,4.60097,2470.427,2022-4-26T06:40:41Z
2022-04-26T04:42:05Z,42.805,6.029,13.3054,4.60077,2470.427,2022-4-26T06:43:44Z
2022-04-26T04:45:08Z,42.805,6.029,13.3014,4.60081,2470.45,2022-4-26T06:46:47Z
2022-04-26T04:48:11Z,42.805,6.029,13.3049,4.60089,2470.413,2022-4-26T06:49:50Z
2022-04-26T04:51:14Z,42.805,6.029,13.3065,4.60094,2470.413,2022-4-26T06:52:53Z
2022-04-26T04:54:17Z,42.805,6.029,13.3049,4.60084,2470.427,2022-4-26T06:55:57Z
2022-04-26T04:57:20Z,42.805,6.029,13.3114,4.60096,2470.45,2022-4-26T06:59:00Z
2022-04-26T05:00:23Z,42.805,6.029,13.3050,4.60085,2470.427,2022-4-26T07:02:03Z
2022-04-26T05:03:27Z,42.805,6.029,13.3046,4.60064,2470.427,2022-4-26T07:05:06Z
2022-04-26T05:06:30Z,42.805,6.029,13.3034,4.60081,2470.427,2022-4-26T07:08:09Z
2022-04-26T05:09:33Z,42.805,6.029,13.3045,4.60079,2470.404,2022-4-26T07:11:12Z
2022-04-26T05:12:36Z,42.805,6.029,13.3051,4.60089,2470.404,2022-4-26T07:14:15Z
2022-04-26T05:15:39Z,42.805,6.029,13.3036,4.60066,2470.413,2022-4-26T07:17:18Z
2022-04-26T05:18:42Z,42.805,6.029,13.3067,4.60082,2470.39,2022-4-26T07:20:21Z
2022-04-26T05:21:45Z,42.805,6.029,13.3043,4.60090,2470.404,2022-4-26T07:23:25Z
2022-04-26T05:24:48Z,42.805,6.029,13.3012,4.60072,2470.427,2022-4-26T07:26:28Z
2022-04-26T05:27:52Z,42.805,6.029,13.3004,4.60073,2470.39,2022-4-26T07:29:31Z
2022-04-26T05:30:55Z,42.805,6.029,13.3000,4.60074,2470.39,2022-4-26T07:32:34Z
2022-04-26T05:33:58Z,42.805,6.029,13.3000,4.60057,2470.39,2022-4-26T07:35:37Z
2022-04-26T05:37:01Z,42.805,6.029,13.3002,4.60056,2470.38,2022-4-26T07:38:40Z
2022-04-26T05:40:04Z,42.805,6.029,13.3000,4.60057,2470.39,2022-4-26T07:41:43Z
2022-04-26T05:43:07Z,42.805,6.029,13.3000,4.60057,2470.366,2022-4-26T07:44:46Z
2022-04-26T05:46:10Z,42.805,6.029,13.2999,4.60056,2470.413,2022-4-26T07:47:50Z
2022-04-26T05:49:13Z,42.805,6.029,13.3001,4.60052,2470.39,2022-4-26T07:50:53Z
2022-04-26T05:52:17Z,42.805,6.029,13.2998,4.60056,2470.39,2022-4-26T07:53:56Z
2022-04-26T05:55:20Z,42.805,6.029,13.3000,4.60052,2470.38,2022-4-26T07:56:59Z
2022-04-26T05:58:23Z,42.805,6.029,13.3004,4.60066,2470.413,2022-4-26T08:00:02Z
2022-04-26T06:01:26Z,42.805,6.029,13.3000,4.60054,2470.404,2022-4-26T08:03:05Z
2022-04-26T06:04:29Z,42.805,6.029,13.3003,4.60049,2470.38,2022-4-26T08:06:08Z
2022-04-26T06:07:32Z,42.805,6.029,13.3002,4.60048,2470.413,2022-4-26T08:09:11Z
2022-04-26T06:10:35Z,42.805,6.029,13.2998,4.60052,2470.366,2022-4-26T08:12:15Z
2022-04-26T06:13:38Z,42.805,6.029,13.2996,4.60044,2470.366,2022-4-26T08:15:18Z
2022-04-26T06:16:41Z,42.805,6.029,13.2995,4.60045,2470.366,2022-4-26T08:18:21Z
2022-04-26T06:19:45Z,42.805,6.029,13.3001,4.60045,2470.427,2022-4-26T08:21:24Z
2022-04-26T06:22:48Z,42.805,6.029,13.3001,4.60046,2470.366,2022-4-26T08:24:27Z
2022-04-26T06:25:51Z,42.805,6.029,13.3005,4.60044,2470.427,2022-4-26T08:27:30Z
2022-04-26T06:28:54Z,42.805,6.029,13.2998,4.60041,2470.38,2022-4-26T08:30:33Z
2022-04-26T06:31:57Z,42.805,6.029,13.3001,4.60042,2470.366,2022-4-26T08:33:36Z
2022-04-26T06:35:00Z,42.805,6.029,13.3000,4.60041,2470.404,2022-4-26T08:36:40Z
2022-04-26T06:38:03Z,42.805,6.029,13.3002,4.60043,2470.38,2022-4-26T08:39:43Z
2022-04-26T06:41:06Z,42.805,6.029,13.3000,4.60046,2470.404,2022-4-26T08:42:46Z
2022-04-26T06:44:10Z,42.805,6.029,13.3001,4.60043,2470.39,2022-4-26T08:45:49Z
2022-04-26T06:47:13Z,42.805,6.029,13.2999,4.60043,2470.366,2022-4-26T08:48:52Z
2022-04-26T06:50:16Z,42.805,6.029,13.3004,4.60042,2470.366,2022-4-26T08:51:55Z
2022-04-26T06:53:19Z,42.805,6.029,13.2997,4.60044,2470.404,2022-4-26T08:54:58Z
2022-04-26T06:56:22Z,42.805,6.029,13.2996,4.60040,2470.38,2022-4-26T08:58:01Z
2022-04-26T06:59:25Z,42.805,6.029,13.2999,4.60043,2470.404,2022-4-26T09:01:05Z
2022-04-26T07:02:28Z,42.805,6.029,13.2999,4.60039,2470.343,2022-4-26T09:04:08Z
2022-04-26T07:05:31Z,42.805,6.029,13.2997,4.60043,2470.366,2022-4-26T09:07:11Z
2022-04-26T07:08:35Z,42.805,6.029,13.3000,4.60039,2470.38,2022-4-26T09:10:14Z
2022-04-26T07:11:38Z,42.805,6.029,13.3004,4.60039,2470.366,2022-4-26T09:13:17Z
2022-04-26T07:14:41Z,42.805,6.029,13.2998,4.60040,2470.366,2022-4-26T09:16:20Z
2022-04-26T07:17:44Z,42.805,6.029,13.2998,4.60046,2470.343,2022-4-26T09:19:23Z
2022-04-26T07:20:47Z,42.805,6.029,13.2999,4.60040,2470.366,2022-4-26T09:22:26Z
2022-04-26T07:23:50Z,42.805,6.029,13.3002,4.60041,2470.33,2022-4-26T09:25:29Z
2022-04-26T07:26:53Z,42.805,6.029,13.3003,4.60040,2470.343,2022-4-26T09:28:33Z
2022-04-26T07:29:56Z,42.805,6.029,13.2998,4.60044,2470.32,2022-4-26T09:31:36Z
2022-04-26T07:32:59Z,42.805,6.029,13.3000,4.60039,2470.32,2022-4-26T09:34:39Z
2022-04-26T07:36:03Z,42.805,6.029,13.3000,4.60039,2470.343,2022-4-26T09:37:42Z
2022-04-26T07:39:06Z,42.805,6.029,13.3000,4.60040,2470.343,2022-4-26T09:40:45Z
2022-04-26T07:42:09Z,42.805,6.029,13.3000,4.60037,2470.366,2022-4-26T09:43:48Z
2022-04-26T07:45:12Z,42.805,6.029,13.2998,4.60038,2470.38,2022-4-26T09:46:51Z
2022-04-26T07:48:15Z,42.805,6.029,13.2999,4.60038,2470.38,2022-4-26T09:49:54Z
2022-04-26T07:51:18Z,42.805,6.029,13.3000,4.60039,2470.38,2022-4-26T09:52:58Z
2022-04-26T07:54:21Z,42.805,6.029,13.3000,4.60040,2470.32,2022-4-26T09:56:01Z
2022-04-26T07:57:24Z,42.805,6.029,13.2998,4.60039,2470.357,2022-4-26T09:59:04Z
2022-04-26T08:00:28Z,42.805,6.029,13.2997,4.60039,2470.343,2022-4-26T10:02:07Z
2022-04-26T08:03:31Z,42.805,6.029,13.2997,4.60042,2470.366,2022-4-26T10:05:10Z
2022-04-26T08:06:34Z,42.805,6.029,13.2997,4.60039,2470.366,2022-4-26T10:08:13Z
2022-04-26T08:09:37Z,42.805,6.029,13.2999,4.60039,2470.343,2022-4-26T10:11:16Z
2022-04-26T08:12:40Z,42.805,6.029,13.3001,4.60040,2470.357,2022-4-26T10:14:19Z
2022-04-26T08:15:43Z,42.805,6.029,13.2998,4.60039,2470.297,2022-4-26T10:17:23Z
2022-04-26T08:18:46Z,42.805,6.029,13.3000,4.60037,2470.297,2022-4-26T10:20:26Z
2022-04-26T08:21:49Z,42.805,6.029,13.2998,4.60037,2470.334,2022-4-26T10:23:29Z
2022-04-26T08:24:53Z,42.805,6.029,13.2997,4.60041,2470.343,2022-4-26T10:26:32Z
2022-04-26T08:27:56Z,42.805,6.029,13.2998,4.60039,2470.32,2022-4-26T10:29:35Z
2022-04-26T08:30:59Z,42.805,6.029,13.2999,4.60039,2470.334,2022-4-26T10:32:38Z
2022-04-26T08:34:02Z,42.805,6.029,13.2997,4.60040,2470.32,2022-4-26T10:35:41Z
2022-04-26T08:37:05Z,42.805,6.029,13.2999,4.60042,2470.334,2022-4-26T10:38:44Z
2022-04-26T08:40:08Z,42.805,6.029,13.2993,4.60043,2470.297,2022-4-26T10:41:48Z
2022-04-26T08:43:11Z,42.805,6.029,13.3000,4.60041,2470.31,2022-4-26T10:44:51Z
2022-04-26T08:46:14Z,42.805,6.029,13.2998,4.60039,2470.334,2022-4-26T10:47:54Z
2022-04-26T08:49:18Z,42.805,6.029,13.2998,4.60038,2470.32,2022-4-26T10:50:57Z
2022-04-26T08:52:21Z,42.805,6.029,13.2998,4.60039,2470.32,2022-4-26T10:54:00Z
2022-04-26T08:55:24Z,42.805,6.029,13.2994,4.60039,2470.334,2022-4-26T10:57:03Z
2022-04-26T08:58:27Z,42.805,6.029,13.2998,4.60038,2470.343,2022-4-26T11:00:06Z
2022-04-26T09:01:30Z,42.805,6.029,13.2998,4.60038,2470.32,2022-4-26T11:03:09Z
2022-04-26T09:04:33Z,42.805,6.029,13.2999,4.60038,2470.297,2022-4-26T11:06:13Z
2022-04-26T09:07:36Z,42.805,6.029,13.2996,4.60038,2470.287,2022-4-26T11:09:16Z
2022-04-26T09:10:40Z,42.805,6.029,13.2998,4.60039,2470.297,2022-4-26T11:12:19Z
2022-04-26T09:13:43Z,42.805,6.029,13.2996,4.60037,2470.31,2022-4-26T11:15:22Z
2022-04-26T09:16:46Z,42.805,6.029,13.3001,4.60039,2470.273,2022-4-26T11:18:25Z
2022-04-26T09:19:49Z,42.805,6.029,13.2995,4.60037,2470.297,2022-4-26T11:21:28Z
2022-04-26T09:22:52Z,42.805,6.029,13.2996,4.60036,2470.297,2022-4-26T11:24:31Z
2022-04-26T09:25:55Z,42.805,6.029,13.2996,4.60038,2470.297,2022-4-26T11:27:34Z
2022-04-26T09:28:58Z,42.805,6.029,13.2997,4.60038,2470.31,2022-4-26T11:30:38Z
2022-04-26T09:32:01Z,42.805,6.029,13.2996,4.60036,2470.297,2022-4-26T11:33:41Z
2022-04-26T09:35:05Z,42.805,6.029,13.2996,4.60036,2470.273,2022-4-26T11:36:44Z
2022-04-26T09:38:08Z,42.805,6.029,13.2997,4.60037,2470.25,2022-4-26T11:39:47Z
2022-04-26T09:41:11Z,42.805,6.029,13.2998,4.60041,2470.273,2022-4-26T11:42:50Z
2022-04-26T09:44:14Z,42.805,6.029,13.3003,4.60039,2470.273,2022-4-26T11:45:53Z
2022-04-26T09:47:17Z,42.805,6.029,13.2998,4.60036,2470.287,2022-4-26T11:48:56Z
2022-04-26T09:50:20Z,42.805,6.029,13.2995,4.60034,2470.273,2022-4-26T11:51:59Z
2022-04-26T09:53:23Z,42.805,6.029,13.2996,4.60035,2470.273,2022-4-26T11:55:03Z
2022-04-26T09:56:26Z,42.805,6.029,13.2995,4.60038,2470.31,2022-4-26T11:58:06Z
2022-04-26T09:59:30Z,42.805,6.029,13.2998,4.60036,2470.273,2022-4-26T12:01:09Z
2022-04-26T10:02:33Z,42.805,6.029,13.2998,4.60035,2470.273,2022-4-26T12:04:12Z
2022-04-26T10:05:36Z,42.805,6.029,13.2996,4.60033,2470.273,2022-4-26T12:07:15Z
2022-04-26T10:08:39Z,42.805,6.029,13.2997,4.60034,2470.287,2022-4-26T12:10:18Z
2022-04-26T10:11:42Z,42.805,6.029,13.2996,4.60035,2470.273,2022-4-26T12:13:21Z
2022-04-26T10:14:45Z,42.805,6.029,13.2994,4.60034,2470.273,2022-4-26T12:16:24Z
2022-04-26T10:17:48Z,42.805,6.029,13.2997,4.60034,2470.273,2022-4-26T12:19:28Z
2022-04-26T10:20:51Z,42.805,6.029,13.2996,4.60034,2470.25,2022-4-26T12:22:31Z
2022-04-26T10:23:55Z,42.805,6.029,13.2996,4.60036,2470.283,2022-4-26T12:25:34Z
2022-04-26T10:26:58Z,42.805,6.029,13.2994,4.60035,2470.264,2022-4-26T12:28:37Z
2022-04-26T10:30:01Z,42.805,6.029,13.2996,4.60033,2470.25,2022-4-26T12:31:40Z
2022-04-26T10:33:04Z,42.805,6.029,13.2996,4.60034,2470.287,2022-4-26T12:34:43Z
2022-04-26T10:36:07Z,42.805,6.029,13.2998,4.60033,2470.25,2022-4-26T12:37:46Z
2022-04-26T10:39:10Z,42.805,6.029,13.2995,4.60033,2470.25,2022-4-26T12:40:50Z
2022-04-26T10:42:13Z,42.805,6.029,13.2996,4.60033,2470.25,2022-4-26T12:43:53Z
2022-04-26T10:45:16Z,42.805,6.029,13.2998,4.60034,2470.264,2022-4-26T12:46:56Z
2022-04-26T10:48:20Z,42.805,6.029,13.2996,4.60034,2470.264,2022-4-26T12:49:59Z
2022-04-26T10:51:23Z,42.805,6.029,13.2998,4.60035,2470.25,2022-4-26T12:53:02Z
2022-04-26T10:54:26Z,42.805,6.029,13.2996,4.60033,2470.25,2022-4-26T12:56:05Z
2022-04-26T10:57:29Z,42.805,6.029,13.2996,4.60034,2470.25,2022-4-26T12:59:08Z
2022-04-26T11:00:32Z,42.805,6.029,13.2998,4.60036,2470.264,2022-4-26T13:02:11Z
2022-04-26T11:03:35Z,42.805,6.029,13.2998,4.60036,2470.264,2022-4-26T13:05:15Z
2022-04-26T11:06:38Z,42.805,6.029,13.2996,4.60033,2470.273,2022-4-26T13:08:18Z
2022-04-26T11:09:41Z,42.805,6.029,13.2998,4.60033,2470.287,2022-4-26T13:11:21Z
2022-04-26T11:12:45Z,42.805,6.029,13.2994,4.60033,2470.273,2022-4-26T13:14:24Z
2022-04-26T11:15:48Z,42.805,6.029,13.2999,4.60033,2470.297,2022-4-26T13:17:27Z
2022-04-26T11:18:51Z,42.805,6.029,13.2994,4.60038,2470.264,2022-4-26T13:20:30Z
2022-04-26T11:21:54Z,42.805,6.029,13.2996,4.60033,2470.273,2022-4-26T13:23:33Z
2022-04-26T11:24:57Z,42.805,6.029,13.2996,4.60033,2470.264,2022-4-26T13:26:36Z
2022-04-26T11:28:00Z,42.805,6.029,13.2996,4.60034,2470.25,2022-4-26T13:29:39Z
2022-04-26T11:31:03Z,42.805,6.029,13.2998,4.60034,2470.264,2022-4-26T13:32:43Z
2022-04-26T11:34:06Z,42.805,6.029,13.2999,4.60035,2470.25,2022-4-26T13:35:46Z
2022-04-26T11:37:10Z,42.805,6.029,13.2994,4.60035,2470.264,2022-4-26T13:38:49Z
2022-04-26T11:40:13Z,42.805,6.029,13.2998,4.60035,2470.25,2022-4-26T13:41:52Z
2022-04-26T11:43:16Z,42.805,6.029,13.2998,4.60033,2470.264,2022-4-26T13:44:55Z
2022-04-26T11:46:19Z,42.805,6.029,13.2999,4.60033,2470.24,2022-4-26T13:47:58Z
2022-04-26T11:49:22Z,42.805,6.029,13.2998,4.60036,2470.203,2022-4-26T13:51:01Z
2022-04-26T11:52:25Z,42.805,6.029,13.2996,4.60033,2470.227,2022-4-26T13:54:05Z
2022-04-26T11:55:28Z,42.805,6.029,13.2997,4.60033,2470.25,2022-4-26T13:57:08Z
2022-04-26T11:58:31Z,42.805,6.029,13.2999,4.60033,2470.264,2022-4-26T14:00:11Z
2022-04-26T12:01:35Z,42.805,6.029,13.2996,4.60036,2470.273,2022-4-26T14:03:14Z
2022-04-26T12:04:38Z,42.805,6.029,13.2998,4.60034,2470.273,2022-4-26T14:06:17Z
2022-04-26T12:07:41Z,42.805,6.029,13.3000,4.60034,2470.264,2022-4-26T14:09:20Z
2022-04-26T12:10:44Z,42.805,6.029,13.2994,4.60034,2470.273,2022-4-26T14:12:23Z
2022-04-26T12:13:47Z,42.805,6.029,13.2997,4.60033,2470.283,2022-4-26T14:15:26Z
2022-04-26T12:16:50Z,42.805,6.029,13.2998,4.60033,2470.273,2022-4-26T14:18:30Z
2022-04-26T12:19:53Z,42.805,6.029,13.2995,4.60033,2470.287,2022-4-26T14:21:33Z
2022-04-26T12:22:56Z,42.805,6.029,13.2996,4.60033,2470.25,2022-4-26T14:24:36Z
2022-04-26T12:26:00Z,42.805,6.029,13.2998,4.60033,2470.227,2022-4-26T14:27:39Z
2022-04-26T12:29:03Z,42.805,6.029,13.2993,4.60033,2470.273,2022-4-26T14:30:42Z
2022-04-26T12:32:06Z,42.805,6.029,13.2997,4.60033,2470.273,2022-4-26T14:33:45Z
2022-04-26T12:35:09Z,42.805,6.029,13.2996,4.60034,2470.24,2022-4-26T14:36:48Z
2022-04-26T12:38:12Z,42.805,6.029,13.2999,4.60034,2470.227,2022-4-26T14:39:51Z
2022-04-26T12:41:15Z,42.805,6.029,13.2995,4.60034,2470.25,2022-4-26T14:42:55Z
2022-04-26T12:44:18Z,42.805,6.029,13.2997,4.60036,2470.273,2022-4-26T14:45:58Z
2022-04-26T12:47:21Z,42.805,6.029,13.2999,4.60034,2470.273,2022-4-26T14:49:01Z
2022-04-26T12:50:25Z,42.805,6.029,13.2993,4.60034,2470.264,2022-4-26T14:52:04Z
2022-04-26T12:53:28Z,42.805,6.029,13.3000,4.60036,2470.273,2022-4-26T14:55:07Z
2022-04-26T12:56:31Z,42.805,6.029,13.2995,4.60035,2470.227,2022-4-26T14:58:10Z
2022-04-26T12:59:34Z,42.805,6.029,13.2996,4.60038,2470.273,2022-4-26T15:01:13Z
2022-04-26T13:02:37Z,42.805,6.029,13.2998,4.60035,2470.273,2022-4-26T15:04:16Z
2022-04-26T13:05:40Z,42.805,6.029,13.2997,4.60034,2470.25,2022-4-26T15:07:20Z
2022-04-26T13:08:43Z,42.805,6.029,13.2997,4.60033,2470.25,2022-4-26T15:10:23Z
2022-04-26T13:11:46Z,42.805,6.029,13.2999,4.60033,2470.25,2022-4-26T15:13:26Z
2022-04-26T13:14:50Z,42.805,6.029,13.2996,4.60034,2470.25,2022-4-26T15:16:29Z
2022-04-26T13:17:53Z,42.805,6.029,13.3000,4.60035,2470.273,2022-4-26T15:19:32Z
2022-04-26T13:20:56Z,42.805,6.029,13.2996,4.60033,2470.273,2022-4-26T15:22:35Z
2022-04-26T13:23:59Z,42.805,6.029,13.2998,4.60033,2470.297,2022-4-26T15:25:38Z
2022-04-26T13:27:02Z,42.805,6.029,13.2993,4.60033,2470.32,2022-4-26T15:28:41Z
2022-04-26T13:30:05Z,42.805,6.029,13.2993,4.60033,2470.32,2022-4-26T15:31:45Z
2022-04-26T13:33:08Z,42.805,6.029,13.2996,4.60035,2470.273,2022-4-26T15:34:48Z
2022-04-26T13:36:11Z,42.805,6.029,13.2996,4.60033,2470.297,2022-4-26T15:37:51Z
2022-04-26T13:39:15Z,42.805,6.029,13.2998,4.60035,2470.273,2022-4-26T15:40:54Z
2022-04-26T13:42:18Z,42.805,6.029,13.2993,4.60033,2470.287,2022-4-26T15:43:57Z
2022-04-26T13:45:21Z,42.805,6.029,13.2995,4.60033,2470.287,2022-4-26T15:47:00Z
2022-04-26T13:48:24Z,42.805,6.029,13.2994,4.60035,2470.31,2022-4-26T15:50:03Z
2022-04-26T13:51:27Z,42.805,6.029,13.2998,4.60033,2470.297,2022-4-26T15:53:06Z
2022-04-26T13:54:30Z,42.805,6.029,13.2996,4.60033,2470.273,2022-4-26T15:56:09Z
2022-04-26T13:57:33Z,42.805,6.029,13.2998,4.60034,2470.273,2022-4-26T15:59:13Z
2022-04-26T14:00:36Z,42.805,6.029,13.2997,4.60033,2470.31,2022-4-26T16:02:16Z
2022-04-26T14:03:39Z,42.805,6.029,13.2993,4.60033,2470.273,2022-4-26T16:05:19Z
2022-04-26T14:06:43Z,42.805,6.029,13.2995,4.60034,2470.297,2022-4-26T16:08:22Z
2022-04-26T14:09:46Z,42.805,6.029,13.2994,4.60036,2470.25,2022-4-26T16:11:25Z
2022-04-26T14:12:49Z,42.805,6.029,13.3000,4.60033,2470.273,2022-4-26T16:14:28Z
2022-04-26T14:15:52Z,42.805,6.029,13.2996,4.60033,2470.32,2022-4-26T16:17:31Z
2022-04-26T14:18:55Z,42.805,6.029,13.2994,4.60034,2470.31,2022-4-26T16:20:35Z
2022-04-26T14:21:58Z,42.805,6.029,13.2998,4.60035,2470.273,2022-4-26T16:23:38Z
2022-04-26T14:25:01Z,42.805,6.029,13.2997,4.60034,2470.334,2022-4-26T16:26:41Z
2022-04-26T14:28:05Z,42.805,6.029,13.2996,4.60033,2470.287,2022-4-26T16:29:44Z
2022-04-26T14:31:08Z,42.805,6.029,13.2998,4.60039,2470.32,2022-4-26T16:32:47Z
2022-04-26T14:34:11Z,42.805,6.029,13.2998,4.60035,2470.32,2022-4-26T16:35:50Z
2022-04-26T14:37:14Z,42.805,6.029,13.2993,4.60035,2470.32,2022-4-26T16:38:53Z
2022-04-26T14:40:17Z,42.805,6.029,13.2999,4.60034,2470.306,2022-4-26T16:41:56Z
2022-04-26T14:43:20Z,42.805,6.029,13.2998,4.60035,2470.31,2022-4-26T16:45:00Z
2022-04-26T14:46:23Z,42.805,6.029,13.2999,4.60037,2470.31,2022-4-26T16:48:03Z
2022-04-26T14:49:26Z,42.805,6.029,13.2996,4.60033,2470.297,2022-4-26T16:51:06Z
2022-04-26T14:52:30Z,42.805,6.029,13.2996,4.60033,2470.297,2022-4-26T16:54:09Z
2022-04-26T14:55:33Z,42.805,6.029,13.2997,4.60034,2470.273,2022-4-26T16:57:12Z
2022-04-26T14:58:36Z,42.805,6.029,13.2996,4.60037,2470.32,2022-4-26T17:00:15Z
2022-04-26T15:01:39Z,42.805,6.029,13.2993,4.60036,2470.31,2022-4-26T17:03:18Z
2022-04-26T15:04:42Z,42.805,6.029,13.2996,4.60035,2470.334,2022-4-26T17:06:21Z
2022-04-26T15:07:45Z,42.805,6.029,13.2998,4.60036,2470.32,2022-4-26T17:09:25Z
2022-04-26T15:10:48Z,42.805,6.029,13.2996,4.60035,2470.357,2022-4-26T17:12:28Z
2022-04-26T15:13:51Z,42.805,6.029,13.3000,4.60036,2470.32,2022-4-26T17:15:31Z